Location: *
(58.4167°N, 22.5000°E)
Time: 13:40:39
(UTC+00:00)

SPOT 1/Viking Rocket - Pass Details

Date: 22 September 2019
Orbit: 777 x 795 km, 98.5° (Epoch: 20 October)

Event Time Altitude Azimuth Distance (km) Brightness Sun altitude
Exits shadow 19:44:24 54° 179° (S) 953 3.7 -23.6°
Maximum altitude 19:45:36 79° 254° (WSW) 806 3.5 -23.7°
Drops below altitude 10° 19:50:48 10° 341° (NNW) 2,350 6.9 -24.2°
Sets 19:53:08 0° 343° (NNW) 3,280 7.8 -24.4°
